Time,TemperatureF,DewpointF,PressureIn,WindDirection,WindDirectionDegrees,WindSpeedMPH,WindSpeedGustMPH,Humidity,HourlyPrecipIn,Conditions,Clouds,dailyrainin,SoftwareType,DateUTC
2013-02-10 00:03:00,11.7,-0.3,30.24,NNW,327,7.0,16.0,58,0.00,CLR,,0.00,WeatherDisplay:10.37,2013-02-10 05:03:00,
2013-02-10 00:13:00,11.9,-0.4,30.24,NNW,339,7.0,13.0,57,0.00,CLR,,0.00,WeatherDisplay:10.37,2013-02-10 05:13:00,
2013-02-10 00:23:00,11.9,-0.1,30.24,North,7,2.0,10.0,58,0.00,CLR,,0.00,WeatherDisplay:10.37,2013-02-10 05:23:00,
2013-02-10 00:33:00,11.9,-0.4,30.24,North,359,3.0,9.0,57,0.00,CLR,,0.00,WeatherDisplay:10.37,2013-02-10 05:33:00,
2013-02-10 00:43:00,12.1,-0.2,30.24,NNW,344,6.0,12.0,57,0.00,CLR,,0.00,WeatherDisplay:10.37,2013-02-10 05:43:00,
2013-02-10 00:53:00,12.3,-0.4,30.25,NNW,333,5.0,15.0,56,0.00,CLR,,0.00,WeatherDisplay:10.37,2013-02-10 05:53:00,
2013-02-10 01:03:00,12.4,-0.7,30.25,NNW,347,5.0,13.0,55,0.00,CLR,,0.00,WeatherDisplay:10.37,2013-02-10 06:03:00,
2013-02-10 01:13:00,12.4,-0.7,30.25,North,1,2.0,7.0,55,0.00,CLR,,0.00,WeatherDisplay:10.37,2013-02-10 06:13:00,
2013-02-10 01:23:00,12.6,-0.5,30.25,North,349,5.0,13.0,55,0.00,CLR,,0.00,WeatherDisplay:10.37,2013-02-10 06:23:00,
2013-02-10 01:33:00,12.6,-0.9,30.25,NNW,336,7.0,14.0,54,0.00,CLR,,0.00,WeatherDisplay:10.37,2013-02-10 06:33:00,
2013-02-10 01:43:00,12.4,-0.7,30.26,NNW,340,3.0,10.0,55,0.00,CLR,,0.00,WeatherDisplay:10.37,2013-02-10 06:43:00,
2013-02-10 01:53:00,12.4,-0.7,30.26,NNW,341,5.0,16.0,55,0.00,CLR,,0.00,WeatherDisplay:10.37,2013-02-10 06:53:00,
2013-02-10 02:03:00,12.1,-1.4,30.26,NNW,335,6.0,10.0,54,0.00,CLR,,0.00,WeatherDisplay:10.37,2013-02-10 07:03:00,
2013-02-10 02:13:00,11.9,-1.2,30.26,NNW,336,3.0,12.0,55,0.00,CLR,,0.00,WeatherDisplay:10.37,2013-02-10 07:13:00,
2013-02-10 02:23:00,11.6,-1.1,30.27,NNW,337,3.0,7.0,56,0.00,CLR,,0.00,WeatherDisplay:10.37,2013-02-10 07:23:00,
2013-02-10 02:33:00,11.4,-1.3,30.27,NW,318,1.0,6.0,56,0.00,CLR,,0.00,WeatherDisplay:10.37,2013-02-10 07:33:00,
2013-02-10 02:43:00,11.1,-1.6,30.27,NNW,330,2.0,7.0,56,0.00,CLR,,0.00,WeatherDisplay:10.37,2013-02-10 07:43:00,
2013-02-10 02:53:00,10.9,-1.4,30.28,NNW,341,1.0,4.0,57,0.00,CLR,,0.00,WeatherDisplay:10.37,2013-02-10 07:53:00,
2013-02-10 03:03:00,10.9,-1.7,30.28,NNW,340,2.0,6.0,56,0.00,CLR,,0.00,WeatherDisplay:10.37,2013-02-10 08:03:00,
2013-02-10 03:13:00,11.2,-2.2,30.27,NNW,331,5.0,9.0,54,0.00,CLR,,0.00,WeatherDisplay:10.37,2013-02-10 08:13:00,
2013-02-10 03:23:00,11.2,-2.2,30.28,NNW,339,3.0,9.0,54,0.00,CLR,,0.00,WeatherDisplay:10.37,2013-02-10 08:23:00,
2013-02-10 03:33:00,11.1,-1.9,30.28,NNW,329,3.0,5.0,55,0.00,CLR,,0.00,WeatherDisplay:10.37,2013-02-10 08:33:00,
2013-02-10 03:43:00,11.1,-2.3,30.28,NNW,337,3.0,7.0,54,0.00,CLR,,0.00,WeatherDisplay:10.37,2013-02-10 08:43:00,
2013-02-10 03:53:00,11.2,-2.6,30.28,NNW,342,3.0,9.0,53,0.00,CLR,,0.00,WeatherDisplay:10.37,2013-02-10 08:53:00,
2013-02-10 04:03:00,11.2,-2.6,30.28,North,349,3.0,6.0,53,0.00,CLR,,0.00,WeatherDisplay:10.37,2013-02-10 09:03:00,
2013-02-10 04:13:00,11.5,-2.4,30.28,North,354,5.0,9.0,53,0.00,CLR,,0.00,WeatherDisplay:10.37,2013-02-10 09:13:00,
2013-02-10 04:23:00,11.6,-2.3,30.29,NW,319,3.0,12.0,53,0.00,CLR,,0.00,WeatherDisplay:10.37,2013-02-10 09:23:00,
2013-02-10 04:33:00,10.9,-2.1,30.29,WNW,296,2.0,6.0,55,0.00,CLR,,0.00,WeatherDisplay:10.37,2013-02-10 09:33:00,
2013-02-10 04:43:00,9.4,-2.4,30.30,West,274,1.0,3.0,58,0.00,CLR,,0.00,WeatherDisplay:10.37,2013-02-10 09:43:00,
2013-02-10 04:53:00,8.8,-3.0,30.31,WNW,299,5.0,12.0,58,0.00,CLR,,0.00,WeatherDisplay:10.37,2013-02-10 09:53:00,
2013-02-10 05:03:00,10.1,-2.5,30.31,WNW,293,2.0,12.0,56,0.00,CLR,,0.00,WeatherDisplay:10.37,2013-02-10 10:03:00,
2013-02-10 05:13:00,10.7,-2.3,30.32,WNW,298,6.0,10.0,55,0.00,CLR,,0.00,WeatherDisplay:10.37,2013-02-10 10:13:00,
2013-02-10 05:23:00,10.9,-2.5,30.32,WNW,288,2.0,12.0,54,0.00,CLR,,0.00,WeatherDisplay:10.37,2013-02-10 10:23:00,
2013-02-10 05:33:00,10.7,-2.3,30.32,NW,309,5.0,12.0,55,0.00,CLR,,0.00,WeatherDisplay:10.37,2013-02-10 10:33:00,
2013-02-10 05:43:00,10.9,-2.1,30.33,NW,305,3.0,12.0,55,0.00,CLR,,0.00,WeatherDisplay:10.37,2013-02-10 10:43:00,
2013-02-10 05:53:00,10.5,-2.1,30.33,WNW,284,3.0,7.0,56,0.00,CLR,,0.00,WeatherDisplay:10.37,2013-02-10 10:53:00,
2013-02-10 06:03:00,10.2,-2.4,30.33,WNW,296,3.0,10.0,56,0.00,CLR,,0.00,WeatherDisplay:10.37,2013-02-10 11:03:00,
2013-02-10 06:13:00,10.4,-2.6,30.33,WNW,298,2.0,7.0,55,0.00,CLR,,0.00,WeatherDisplay:10.37,2013-02-10 11:13:00,
2013-02-10 06:23:00,10.9,-2.9,30.33,NW,317,2.0,7.0,53,0.00,CLR,,0.00,WeatherDisplay:10.37,2013-02-10 11:23:00,
2013-02-10 06:33:00,10.9,-2.5,30.33,NW,316,2.0,5.0,54,0.00,CLR,,0.00,WeatherDisplay:10.37,2013-02-10 11:33:00,
2013-02-10 06:43:00,10.0,-2.6,30.34,WNW,303,1.0,4.0,56,0.00,CLR,,0.00,WeatherDisplay:10.37,2013-02-10 11:43:00,
2013-02-10 06:53:00,9.2,-3.0,30.36,NW,304,2.0,5.0,57,0.00,CLR,,0.00,WeatherDisplay:10.37,2013-02-10 11:53:00,
2013-02-10 07:03:00,10.0,-2.9,30.36,NW,313,3.0,9.0,55,0.00,CLR,,0.00,WeatherDisplay:10.37,2013-02-10 12:03:00,
2013-02-10 07:13:00,10.7,-2.7,30.36,WNW,295,3.0,9.0,54,0.00,CLR,,0.00,WeatherDisplay:10.37,2013-02-10 12:13:00,
2013-02-10 07:23:00,11.1,-2.3,30.37,WNW,294,3.0,9.0,54,0.00,CLR,,0.00,WeatherDisplay:10.37,2013-02-10 12:23:00,
2013-02-10 07:33:00,11.6,-2.2,30.37,NW,312,5.0,10.0,53,0.00,CLR,,0.00,WeatherDisplay:10.37,2013-02-10 12:33:00,
2013-02-10 07:43:00,12.3,-2.0,30.38,WNW,297,7.0,12.0,52,0.00,CLR,,0.00,WeatherDisplay:10.37,2013-02-10 12:43:00,
2013-02-10 07:53:00,12.9,-1.9,30.38,WNW,294,5.0,12.0,51,0.00,CLR,,0.00,WeatherDisplay:10.37,2013-02-10 12:53:00,
2013-02-10 08:03:00,13.5,-1.3,30.38,NW,312,3.0,12.0,51,0.00,CLR,,0.00,WeatherDisplay:10.37,2013-02-10 13:03:00,
2013-02-10 08:13:00,13.9,-1.3,30.39,NW,305,3.0,7.0,50,0.00,CLR,,0.00,WeatherDisplay:10.37,2013-02-10 13:13:00,
2013-02-10 08:23:00,14.6,-1.1,30.39,NW,313,1.0,7.0,49,0.00,CLR,,0.00,WeatherDisplay:10.37,2013-02-10 13:23:00,
2013-02-10 08:33:00,15.3,-0.9,30.39,NW,309,1.0,5.0,48,0.00,CLR,,0.00,WeatherDisplay:10.37,2013-02-10 13:33:00,
2013-02-10 08:43:00,16.3,-0.4,30.39,NNW,332,2.0,4.0,47,0.00,CLR,,0.00,WeatherDisplay:10.37,2013-02-10 13:43:00,
2013-02-10 08:53:00,17.1,-0.2,30.39,NW,306,2.0,6.0,46,0.00,CLR,,0.00,WeatherDisplay:10.37,2013-02-10 13:53:00,
2013-02-10 09:03:00,18.0,0.2,30.39,NW,306,3.0,6.0,45,0.00,CLR,,0.00,WeatherDisplay:10.37,2013-02-10 14:03:00,
2013-02-10 09:13:00,19.0,1.2,30.39,NW,316,3.0,5.0,45,0.00,CLR,,0.00,WeatherDisplay:10.37,2013-02-10 14:13:00,
2013-02-10 09:23:00,19.9,1.5,30.39,WNW,286,2.0,6.0,44,0.00,CLR,,0.00,WeatherDisplay:10.37,2013-02-10 14:23:00,
2013-02-10 09:33:00,21.0,1.4,30.39,NW,309,3.0,6.0,42,0.00,CLR,,0.00,WeatherDisplay:10.37,2013-02-10 14:33:00,
2013-02-10 09:43:00,22.1,0.8,30.40,NW,304,5.0,9.0,39,0.00,CLR,,0.00,WeatherDisplay:10.37,2013-02-10 14:43:00,
2013-02-10 09:53:00,22.9,1.0,30.40,NW,312,6.0,10.0,38,0.00,CLR,,0.00,WeatherDisplay:10.37,2013-02-10 14:53:00,
2013-02-10 10:03:00,23.6,1.1,30.40,NW,326,5.0,12.0,37,0.00,CLR,,0.00,WeatherDisplay:10.37,2013-02-10 15:03:00,
2013-02-10 10:13:00,23.9,0.8,30.40,NW,313,5.0,12.0,36,0.00,CLR,,0.00,WeatherDisplay:10.37,2013-02-10 15:13:00,
2013-02-10 10:23:00,24.6,1.4,30.41,NW,324,2.0,7.0,36,0.00,CLR,,0.00,WeatherDisplay:10.37,2013-02-10 15:23:00,
2013-02-10 10:33:00,25.2,2.0,30.41,NW,310,5.0,12.0,36,0.00,CLR,,0.00,WeatherDisplay:10.37,2013-02-10 15:33:00,
2013-02-10 10:43:00,26.1,2.7,30.41,NNW,331,3.0,9.0,36,0.00,CLR,,0.00,WeatherDisplay:10.37,2013-02-10 15:43:00,
2013-02-10 10:53:00,26.7,2.0,30.41,NW,320,5.0,10.0,34,0.00,CLR,,0.00,WeatherDisplay:10.37,2013-02-10 15:53:00,
2013-02-10 11:03:00,27.3,2.6,30.41,NW,310,7.0,12.0,34,0.00,CLR,,0.00,WeatherDisplay:10.37,2013-02-10 16:03:00,
2013-02-10 11:13:00,27.4,2.0,30.41,NW,309,6.0,12.0,33,0.00,CLR,,0.00,WeatherDisplay:10.37,2013-02-10 16:13:00,
2013-02-10 11:23:00,28.1,3.9,30.41,NW,325,6.0,10.0,35,0.00,CLR,,0.00,WeatherDisplay:10.37,2013-02-10 16:23:00,
2013-02-10 11:33:00,28.5,2.3,30.41,NW,322,5.0,12.0,32,0.00,CLR,,0.00,WeatherDisplay:10.37,2013-02-10 16:33:00,
2013-02-10 11:43:00,29.1,2.2,30.41,NW,315,6.0,12.0,31,0.00,CLR,,0.00,WeatherDisplay:10.37,2013-02-10 16:43:00,
2013-02-10 11:53:00,29.8,3.5,30.41,NW,315,3.0,12.0,32,0.00,CLR,,0.00,WeatherDisplay:10.37,2013-02-10 16:53:00,
2013-02-10 12:03:00,30.1,3.7,30.41,NW,308,5.0,10.0,32,0.00,CLR,,0.00,WeatherDisplay:10.37,2013-02-10 17:03:00,
2013-02-10 12:13:00,30.7,4.9,30.41,WNW,302,3.0,7.0,33,0.00,CLR,,0.00,WeatherDisplay:10.37,2013-02-10 17:13:00,
2013-02-10 12:23:00,30.7,4.2,30.40,WNW,294,5.0,12.0,32,0.00,CLR,,0.00,WeatherDisplay:10.37,2013-02-10 17:23:00,
2013-02-10 12:33:00,31.1,6.0,30.40,WNW,297,1.0,8.0,34,0.00,CLR,,0.00,WeatherDisplay:10.37,2013-02-10 17:33:00,
2013-02-10 12:43:00,31.3,4.8,30.39,NW,326,5.0,6.0,32,0.00,CLR,,0.00,WeatherDisplay:10.37,2013-02-10 17:43:00,
2013-02-10 12:53:00,31.7,5.2,30.38,NNW,348,2.0,7.0,32,0.00,CLR,,0.00,WeatherDisplay:10.37,2013-02-10 17:53:00,
2013-02-10 13:03:00,31.6,5.1,30.38,NNE,16,1.0,5.0,32,0.00,CLR,,0.00,WeatherDisplay:10.37,2013-02-10 18:03:00,
2013-02-10 13:13:00,32.5,5.2,30.38,NNW,330,3.0,4.0,31,0.00,CLR,,0.00,WeatherDisplay:10.37,2013-02-10 18:13:00,
2013-02-10 13:23:00,32.9,6.2,30.37,North,352,0.0,3.0,32,0.00,CLR,,0.00,WeatherDisplay:10.37,2013-02-10 18:23:00,
2013-02-10 13:33:00,33.7,5.5,30.37,NNW,343,0.0,4.0,30,0.00,CLR,,0.00,WeatherDisplay:10.37,2013-02-10 18:33:00,
2013-02-10 13:43:00,34.3,6.1,30.36,WNW,298,1.0,4.0,30,0.00,CLR,,0.00,WeatherDisplay:10.37,2013-02-10 18:43:00,
2013-02-10 13:53:00,34.4,6.1,30.36,WNW,295,1.0,3.0,30,0.00,CLR,,0.00,WeatherDisplay:10.37,2013-02-10 18:53:00,
2013-02-10 14:03:00,35.2,6.8,30.36,NW,309,2.0,4.0,30,0.00,CLR,,0.00,WeatherDisplay:10.37,2013-02-10 19:03:00,
2013-02-10 14:13:00,35.5,6.3,30.35,East,101,1.0,5.0,29,0.00,CLR,,0.00,WeatherDisplay:10.37,2013-02-10 19:13:00,
2013-02-10 14:23:00,35.4,3.9,30.36,NW,312,3.0,6.0,26,0.00,CLR,,0.00,WeatherDisplay:10.37,2013-02-10 19:23:00,
2013-02-10 14:33:00,35.7,4.1,30.36,WNW,302,1.0,5.0,26,0.00,CLR,,0.00,WeatherDisplay:10.37,2013-02-10 19:33:00,
2013-02-10 14:43:00,35.8,5.8,30.36,WNW,288,2.0,6.0,28,0.00,CLR,,0.00,WeatherDisplay:10.37,2013-02-10 19:43:00,
2013-02-10 14:53:00,36.3,7.0,30.36,WSW,257,2.0,4.0,29,0.00,CLR,,0.00,WeatherDisplay:10.37,2013-02-10 19:53:00,
2013-02-10 15:03:00,36.1,6.9,30.36,West,272,2.0,6.0,29,0.00,CLR,,0.00,WeatherDisplay:10.37,2013-02-10 20:03:00,
2013-02-10 15:13:00,35.8,5.8,30.36,West,280,1.0,5.0,28,0.00,CLR,,0.00,WeatherDisplay:10.37,2013-02-10 20:13:00,
2013-02-10 15:23:00,35.6,4.0,30.37,NW,321,5.0,8.0,26,0.00,CLR,,0.00,WeatherDisplay:10.37,2013-02-10 20:23:00,
2013-02-10 15:33:00,35.4,3.0,30.37,West,281,6.0,10.0,25,0.00,CLR,,0.00,WeatherDisplay:10.37,2013-02-10 20:33:00,
2013-02-10 15:43:00,35.1,3.6,30.37,West,277,2.0,9.0,26,0.00,CLR,,0.00,WeatherDisplay:10.37,2013-02-10 20:43:00,
2013-02-10 15:53:00,34.7,2.4,30.38,West,274,3.0,6.0,25,0.00,CLR,,0.00,WeatherDisplay:10.37,2013-02-10 20:53:00,
2013-02-10 16:03:00,34.6,2.3,30.38,WNW,300,2.0,6.0,25,0.00,CLR,,0.00,WeatherDisplay:10.37,2013-02-10 21:03:00,
2013-02-10 16:13:00,34.0,2.6,30.37,West,271,2.0,6.0,26,0.00,CLR,,0.00,WeatherDisplay:10.37,2013-02-10 21:13:00,
2013-02-10 16:23:00,33.5,1.4,30.37,West,278,3.0,7.0,25,0.00,CLR,,0.00,WeatherDisplay:10.37,2013-02-10 21:23:00,
2013-02-10 16:33:00,33.2,1.9,30.37,WNW,294,2.0,6.0,26,0.00,CLR,,0.00,WeatherDisplay:10.37,2013-02-10 21:33:00,
2013-02-10 16:43:00,32.8,3.2,30.37,WNW,293,1.0,5.0,28,0.00,CLR,,0.00,WeatherDisplay:10.37,2013-02-10 21:43:00,
2013-02-10 16:53:00,31.8,4.5,30.36,West,259,1.0,4.0,31,0.00,CLR,,0.00,WeatherDisplay:10.37,2013-02-10 21:53:00,
2013-02-10 17:03:00,31.1,4.7,30.36,WNW,285,1.0,4.0,32,0.00,CLR,,0.00,WeatherDisplay:10.37,2013-02-10 22:03:00,
2013-02-10 17:13:00,30.0,3.7,30.37,WNW,291,0.0,2.0,32,0.00,CLR,,0.00,WeatherDisplay:10.37,2013-02-10 22:13:00,
2013-02-10 17:23:00,28.9,4.6,30.37,WNW,293,0.0,2.0,35,0.00,CLR,,0.00,WeatherDisplay:10.37,2013-02-10 22:23:00,
2013-02-10 17:33:00,27.6,4.7,30.37,WNW,293,0.0,1.0,37,0.00,CLR,,0.00,WeatherDisplay:10.37,2013-02-10 22:33:00,
2013-02-10 17:43:00,26.6,3.2,30.37,WNW,293,0.0,0.0,36,0.00,CLR,,0.00,WeatherDisplay:10.37,2013-02-10 22:43:00,
2013-02-10 17:53:00,26.0,4.4,30.37,WNW,289,1.0,1.0,39,0.00,CLR,,0.00,WeatherDisplay:10.37,2013-02-10 22:53:00,
2013-02-10 18:03:00,26.0,3.8,30.37,WNW,291,1.0,1.0,38,0.00,CLR,,0.00,WeatherDisplay:10.37,2013-02-10 23:03:00,
2013-02-10 18:13:00,25.7,3.6,30.37,WNW,290,0.0,1.0,38,0.00,CLR,,0.00,WeatherDisplay:10.37,2013-02-10 23:13:00,
2013-02-10 18:23:00,24.8,4.9,30.37,WNW,297,1.0,3.0,42,0.00,CLR,,0.00,WeatherDisplay:10.37,2013-02-10 23:23:00,
2013-02-10 18:33:00,24.6,4.2,30.37,WNW,296,1.0,3.0,41,0.00,CLR,,0.00,WeatherDisplay:10.37,2013-02-10 23:33:00,
2013-02-10 18:43:00,25.4,4.9,30.37,WNW,293,1.0,2.0,41,0.00,CLR,,0.00,WeatherDisplay:10.37,2013-02-10 23:43:00,
2013-02-10 18:53:00,25.1,3.6,30.37,WNW,294,0.0,1.0,39,0.00,CLR,,0.00,WeatherDisplay:10.37,2013-02-10 23:53:00,
2013-02-10 19:03:00,24.3,5.0,30.37,WNW,297,1.0,2.0,43,0.00,CLR,,0.00,WeatherDisplay:10.37,2013-02-11 00:03:00,
2013-02-10 19:13:00,23.9,4.6,30.38,NW,318,1.0,2.0,43,0.00,CLR,,0.00,WeatherDisplay:10.37,2013-02-11 00:13:00,
2013-02-10 19:23:00,23.3,5.1,30.38,WNW,295,0.0,2.0,45,0.00,CLR,,0.00,WeatherDisplay:10.37,2013-02-11 00:23:00,
2013-02-10 19:33:00,23.0,4.8,30.38,NW,306,0.0,1.0,45,0.00,CLR,,0.00,WeatherDisplay:10.37,2013-02-11 00:33:00,
2013-02-10 19:43:00,22.6,4.4,30.38,WNW,295,0.0,1.0,45,0.00,CLR,,0.00,WeatherDisplay:10.37,2013-02-11 00:43:00,
2013-02-10 19:53:00,22.3,4.6,30.38,WNW,300,1.0,1.0,46,0.00,CLR,,0.00,WeatherDisplay:10.37,2013-02-11 00:53:00,
2013-02-10 20:03:00,22.1,4.4,30.38,WNW,297,1.0,1.0,46,0.00,CLR,,0.00,WeatherDisplay:10.37,2013-02-11 01:03:00,
2013-02-10 20:13:00,21.8,3.7,30.37,WNW,289,0.0,2.0,45,0.00,CLR,,0.00,WeatherDisplay:10.37,2013-02-11 01:13:00,
2013-02-10 20:23:00,22.1,3.4,30.37,WNW,299,1.0,2.0,44,0.00,CLR,,0.00,WeatherDisplay:10.37,2013-02-11 01:23:00,
2013-02-10 20:33:00,22.0,4.3,30.37,WNW,299,1.0,2.0,46,0.00,CLR,,0.00,WeatherDisplay:10.37,2013-02-11 01:33:00,
2013-02-10 20:43:00,21.8,5.1,30.38,WNW,292,2.0,3.0,48,0.00,CLR,,0.00,WeatherDisplay:10.37,2013-02-11 01:43:00,
2013-02-10 20:53:00,21.5,5.7,30.38,WNW,291,1.0,3.0,50,0.00,CLR,,0.00,WeatherDisplay:10.37,2013-02-11 01:53:00,
2013-02-10 21:03:00,20.7,5.4,30.38,WNW,299,0.0,2.0,51,0.00,CLR,,0.00,WeatherDisplay:10.37,2013-02-11 02:03:00,
2013-02-10 21:13:00,20.4,5.1,30.37,WNW,298,1.0,2.0,51,0.00,CLR,,0.00,WeatherDisplay:10.37,2013-02-11 02:13:00,
2013-02-10 21:23:00,20.2,4.9,30.37,WNW,293,2.0,3.0,51,0.00,CLR,,0.00,WeatherDisplay:10.37,2013-02-11 02:23:00,
2013-02-10 21:33:00,20.7,4.1,30.37,WNW,293,2.0,3.0,48,0.00,CLR,,0.00,WeatherDisplay:10.37,2013-02-11 02:33:00,
2013-02-10 21:43:00,20.9,4.3,30.37,WNW,293,1.0,3.0,48,0.00,CLR,,0.00,WeatherDisplay:10.37,2013-02-11 02:43:00,
2013-02-10 21:53:00,21.1,4.0,30.37,NW,308,2.0,4.0,47,0.00,CLR,,0.00,WeatherDisplay:10.37,2013-02-11 02:53:00,
2013-02-10 22:03:00,22.1,3.5,30.37,West,281,3.0,5.0,44,0.00,CLR,,0.00,WeatherDisplay:10.37,2013-02-11 03:03:00,
2013-02-10 22:13:00,22.4,3.2,30.36,WNW,284,3.0,4.0,43,0.00,CLR,,0.00,WeatherDisplay:10.37,2013-02-11 03:13:00,
2013-02-10 22:23:00,22.4,3.2,30.36,WNW,288,3.0,5.0,43,0.00,CLR,,0.00,WeatherDisplay:10.37,2013-02-11 03:23:00,
2013-02-10 22:33:00,22.3,3.2,30.36,WNW,285,3.0,4.0,43,0.00,CLR,,0.00,WeatherDisplay:10.37,2013-02-11 03:33:00,
2013-02-10 22:43:00,22.4,2.7,30.36,West,278,2.0,4.0,42,0.00,CLR,,0.00,WeatherDisplay:10.37,2013-02-11 03:43:00,
2013-02-10 22:53:00,21.8,2.7,30.35,WNW,298,1.0,3.0,43,0.00,CLR,,0.00,WeatherDisplay:10.37,2013-02-11 03:53:00,
2013-02-10 23:03:00,21.3,2.2,30.35,WNW,293,1.0,2.0,43,0.00,CLR,,0.00,WeatherDisplay:10.37,2013-02-11 04:03:00,
2013-02-10 23:13:00,21.5,3.4,30.36,NW,304,1.0,3.0,45,0.00,CLR,,0.00,WeatherDisplay:10.37,2013-02-11 04:13:00,
2013-02-10 23:23:00,21.3,3.7,30.36,NW,316,2.0,3.0,46,0.00,CLR,,0.00,WeatherDisplay:10.37,2013-02-11 04:23:00,
2013-02-10 23:33:00,20.9,4.3,30.36,NW,304,1.0,3.0,48,0.00,CLR,,0.00,WeatherDisplay:10.37,2013-02-11 04:33:00,
2013-02-10 23:43:00,20.8,4.2,30.36,WNW,293,2.0,3.0,48,0.00,CLR,,0.00,WeatherDisplay:10.37,2013-02-11 04:43:00,
2013-02-10 23:53:00,21.2,4.5,30.36,WNW,292,1.0,3.0,48,0.00,CLR,,0.00,WeatherDisplay:10.37,2013-02-11 04:53:00,